Location: Krakow
(50.0830°N, 19.9170°E)
Time: 04:51:02
(UTC+01:00)

Courier 1B Rocket - Pass Details

Date: 13 December 2023
Orbit: 920 x 1202 km, 28.2° (Epoch: 29 February)

Event Time Altitude Azimuth Distance (km) Brightness Sun altitude
Rises 10:57:10 0° 233° (SW) 3,902 8.5 16.3°
Reaches altitude 10° 11:03:13 10° 195° (SSW) 2,852 9.0 16.4°
Maximum altitude 11:04:11 10° 187° (S) 2,814 9.4 16.5°
Drops below altitude 10° 11:05:08 10° 179° (S) 2,822 10.0 16.5°
Sets 11:10:52 0° 140° (SE) 3,685 9.0 16.6°
